West Palm Beach, FL

3:22 AM EDT on September 25, 2016 (GMT -0400)
Palm Beach International

Weather History for KPBI - March, 2015

Change the Weather History Date:

Saturday, March 21, 2015

  Actual Average Record
Temperature  
Mean Temperature 79 °F 71 °F  
Max Temperature 88 °F 79 °F 92 °F (2003)
Min Temperature 69 °F 63 °F 41 °F (1971)
Degree Days  
Heating Degree Days 0 1  
Month to date heating degree days 0 21  
Since 1 July heating degree days 124 226  
Cooling Degree Days 14 6  
Month to date cooling degree days 270 124  
Year to date cooling degree days 548 359  
Growing Degree Days 28 (Base 50)    
Moisture  
Dew Point 67 °F    
Average Humidity 74    
Maximum Humidity 90    
Minimum Humidity 57    
Precipitation  
Precipitation 0.00 in 0.15 in 5.58 in (1993)
Month to date precipitation 0.14 3.09  
Year to date precipitation 3.24 9.04  
Snow  
Snow 0.00 in - - ()
Month to date snowfall 0.0  
Since 1 July snowfall 0.0  
Snow Depth 0.00 in    
Sea Level Pressure  
Sea Level Pressure 30.04 in    
Wind  
Wind Speed 7 mph (SSW)    
Max Wind Speed 13 mph    
Max Gust Speed 17 mph    
Visibility 10 miles    
Events      
T = Trace of Precipitation, MM = Missing Value Source: NWS Daily Summary

Daily Weather History Graph

Daily Weather History Graph

Search for Another Location

Airport or City:

Trip Planner

Search our weather history database for the weather conditions in past years. The results will help you decide how hot, cold, wet, or windy it might be!

Date:

Astronomy

Mar. 21, 2015 Rise Set
Actual Time 7:23 AM EDT 7:32 PM EDT
Civil Twilight 7:00 AM EDT 7:55 PM EDT
Nautical Twilight 6:33 AM EDT 8:22 PM EDT
Astronomical Twilight 6:06 AM EDT 8:49 PM EDT
Moon 8:14 AM EDT (3/21) 9:10 PM EDT (3/21)
Length of Visible Light 12h 54m
Length of Day
12h 08m
New Moon, 2% of the Moon is Illuminated
Mar 21
New Moon
Mar 27
First Quarter
Apr 4
Full
Apr 11
Last Quarter
Apr 18
New

Hourly Weather History & Observations

Time (EDT) Temp. Heat Index Dew Point Humidity Pressure Visibility Wind Dir Wind Speed Gust Speed Precip Events Conditions
12:53 AM 75.9 °F - 64.0 °F 67% 30.06 in 10.0 mi West 10.4 mph - N/A   Mostly Cloudy
1:53 AM 73.9 °F - 64.0 °F 71% 30.05 in 10.0 mi West 6.9 mph - N/A   Mostly Cloudy
2:53 AM 73.0 °F - 63.0 °F 71% 30.03 in 10.0 mi West 6.9 mph - N/A   Mostly Cloudy
3:53 AM 72.0 °F - 63.0 °F 73% 30.02 in 10.0 mi West 5.8 mph - N/A   Partly Cloudy
4:53 AM 70.0 °F - 63.0 °F 78% 30.01 in 10.0 mi West 5.8 mph - N/A   Partly Cloudy
5:53 AM 70.0 °F - 64.0 °F 81% 30.02 in 10.0 mi West 4.6 mph - N/A   Clear
6:53 AM 70.0 °F - 64.9 °F 84% 30.04 in 10.0 mi West 4.6 mph - N/A   Clear
7:53 AM 69.1 °F - 66.0 °F 90% 30.05 in 10.0 mi WSW 5.8 mph - N/A   Clear
8:53 AM 73.0 °F - 68.0 °F 84% 30.07 in 10.0 mi WNW 4.6 mph - N/A   Clear
9:53 AM 77.0 °F - 68.0 °F 74% 30.08 in 10.0 mi NNW 5.8 mph - N/A   Clear
10:53 AM 81.0 °F 84.1 °F 69.1 °F 67% 30.09 in 10.0 mi Variable 4.6 mph - N/A   Clear
11:53 AM 84.9 °F 88.2 °F 68.0 °F 57% 30.09 in 10.0 mi NE 4.6 mph - N/A   Partly Cloudy
12:53 PM 86.0 °F 90.1 °F 69.1 °F 57% 30.08 in 10.0 mi ENE 6.9 mph - N/A   Partly Cloudy
1:53 PM 84.9 °F 88.8 °F 69.1 °F 59% 30.05 in 10.0 mi Variable 3.5 mph - N/A   Scattered Clouds
2:53 PM 84.9 °F 89.4 °F 70.0 °F 61% 30.03 in 10.0 mi East 10.4 mph - N/A   Partly Cloudy
3:53 PM 84.0 °F 89.0 °F 71.1 °F 65% 30.01 in 10.0 mi ESE 11.5 mph - N/A   Scattered Clouds
4:53 PM 82.9 °F 87.5 °F 71.1 °F 67% 30.00 in 10.0 mi ESE 11.5 mph - N/A   Scattered Clouds
5:53 PM 80.1 °F 83.6 °F 71.1 °F 74% 30.00 in 10.0 mi ESE 9.2 mph - N/A   Mostly Cloudy
6:53 PM 80.1 °F 82.9 °F 69.1 °F 69% 30.01 in 10.0 mi ESE 9.2 mph - N/A   Mostly Cloudy
7:53 PM 80.1 °F 82.3 °F 66.9 °F 64% 30.02 in 10.0 mi SE 6.9 mph - N/A   Mostly Cloudy
8:53 PM 79.0 °F - 66.0 °F 64% 30.02 in 10.0 mi SE 8.1 mph - N/A   Mostly Cloudy
9:53 PM 78.1 °F - 66.0 °F 66% 30.03 in 10.0 mi South 5.8 mph - N/A   Mostly Cloudy
10:53 PM 78.1 °F - 66.9 °F 68% 30.04 in 10.0 mi South 8.1 mph - N/A   Mostly Cloudy
11:53 PM 78.1 °F - 64.9 °F 64% 30.03 in 10.0 mi SW 10.4 mph - N/A   Mostly Cloudy